This is the latest recevied weather packets stored in our database for station/object IZ8FMH-11. If no packets are shown the sender has not sent any weather packets the latest 10 day(s).
| Time | Temp. | Humidity | Pressure | Rain* | Wind** | Luminosity | Snow |
|---|---|---|---|---|---|---|---|
| 1787925897 | 32.22° C | 43% | 1013 hPa | - | - | - | - |
| 1787924097 | 32.22° C | 52% | 1013.4 hPa | - | - | - | - |
| 1787922297 | 32.22° C | 43% | 1013.3 hPa | - | - | - | - |
| 1787920498 | 31.67° C | 48% | 1013.6 hPa | - | - | - | - |
| 1787918698 | 31.67° C | 53% | 1014.2 hPa | - | - | - | - |
| 1787916898 | 31.11° C | 57% | 1014.1 hPa | - | - | - | - |
| 1787915098 | 31.11° C | 57% | 1014.3 hPa | - | - | - | - |
| 1787913298 | 31.11° C | 53% | 1014.6 hPa | - | - | - | - |
| 1787911498 | 31.11° C | 49% | 1014.6 hPa | - | - | - | - |
| 1787909698 | 30.56° C | 48% | 1014.7 hPa | - | - | - | - |
| 1787907898 | 30° C | 50% | 1015.1 hPa | - | - | - | - |
| 1787906098 | 30° C | 52% | 1015.2 hPa | - | - | - | - |
| 1787904298 | 29.44° C | 53% | 1015.3 hPa | - | - | - | - |
| 1787902498 | 28.89° C | 52% | 1015.3 hPa | - | - | - | - |
| 1787900697 | 28.33° C | 51% | 1015.7 hPa | - | - | - | - |
| 1787898897 | 28.33° C | 49% | 1015.5 hPa | - | - | - | - |
| 1787897097 | 27.78° C | 48% | 1015.4 hPa | - | - | - | - |
| 1787895297 | 27.78° C | 47% | 1015.5 hPa | - | - | - | - |
| 1787893497 | 27.78° C | 44% | 1015.3 hPa | - | - | - | - |
| 1787891697 | 27.78° C | 44% | 1014.7 hPa | - | - | - | - |
| 1787889897 | 27.78° C | 49% | 1014.4 hPa | - | - | - | - |
| 1787888097 | 27.78° C | 48% | 1014.6 hPa | - | - | - | - |
| 1787886297 | 28.33° C | 43% | 1014.3 hPa | - | - | - | - |
| 1787884497 | 28.33° C | 43% | 1014.5 hPa | - | - | - | - |
| 1787882697 | 28.33° C | 48% | 1014.7 hPa | - | - | - | - |
* Rain since midnight (hover to see other rain measurements)
** Current wind speed in m/s (hover to see current wind gust speed)